• In Moldova, Republic
  • List of Countries
  • For 7 days
  • Water Temperature
  • Satellite Maps
  • Weather Map
  • Weather Widgets
  • user-avatar
    Login

    Hourly Weather Adelaide

    Today, 27 March, Monday

    Time Temperature Precipitation Wind Pressure Humidity
    00:00 +33°C° 0 mm 5 mps 749 mmHg 31%
    01:00 +32°C° 0 mm 5 mps 749 mmHg 37%
    02:00 +29°C° 0 mm 6 mps 750 mmHg 44%
    03:00 +28°C° 0 mm 5 mps 750 mmHg 54%
    04:00 +26°C° 0 mm 5 mps 751 mmHg 61%
    05:00 +24°C° 0 mm 6 mps 753 mmHg 68%
    06:00 +22°C° 0 mm 6 mps 754 mmHg 75%
    07:00 +22°C° 0 mm 6 mps 755 mmHg 68%
    08:00 +23°C° 0 mm 6 mps 755 mmHg 62%
    09:00 +22°C° 0 mm 6 mps 757 mmHg 56%
    10:00 +23°C° 0 mm 6 mps 757 mmHg 53%
    11:00 +23°C° 0 mm 5 mps 757 mmHg 50%
    12:00 +23°C° 0 mm 5 mps 756 mmHg 46%
    13:00 +23°C° 0 mm 5 mps 756 mmHg 45%
    14:00 +25°C° 0 mm 5 mps 756 mmHg 43%
    15:00 +25°C° 0 mm 5 mps 756 mmHg 41%
    16:00 +22°C° 0 mm 4 mps 757 mmHg 46%
    17:00 +21°C° 0 mm 3 mps 757 mmHg 50%
    18:00 +20°C° 0 mm 3 mps 757 mmHg 55%
    19:00 +20°C° 0 mm 3 mps 757 mmHg 59%
    20:00 +19°C° 0 mm 3 mps 758 mmHg 62%
    21:00 +18°C° 0 mm 3 mps 758 mmHg 66%
    22:00 +18°C° 0 mm 3 mps 758 mmHg 68%
    23:00 +18°C° 0 mm 3 mps 758 mmHg 70%

    Tomorrow, 28 March, Tuesday

    Time Temperature Precipitation Wind Pressure Humidity
    00:00 +17°C° 0 mm 3 mps 758 mmHg 73%
    01:00 +17°C° 0 mm 3 mps 758 mmHg 74%
    02:00 +17°C° 0 mm 3 mps 758 mmHg 76%
    03:00 +17°C° 0 mm 3 mps 757 mmHg 77%
    04:00 +17°C° 0 mm 2 mps 758 mmHg 78%
    05:00 +16°C° 0 mm 2 mps 758 mmHg 79%
    06:00 +16°C° 0 mm 2 mps 758 mmHg 80%
    07:00 +18°C° 0 mm 2 mps 758 mmHg 73%
    08:00 +19°C° 0 mm 2 mps 758 mmHg 66%
    09:00 +21°C° 0 mm 2 mps 758 mmHg 59%
    10:00 +23°C° 0 mm 2 mps 758 mmHg 55%
    11:00 +24°C° 0 mm 2 mps 758 mmHg 51%
    12:00 +25°C° 0 mm 2 mps 758 mmHg 46%
    13:00 +25°C° 0 mm 2 mps 757 mmHg 45%
    14:00 +25°C° 0 mm 2 mps 756 mmHg 44%
    15:00 +25°C° 0 mm 2 mps 756 mmHg 42%
    16:00 +24°C° 0 mm 2 mps 756 mmHg 49%
    17:00 +22°C° 0 mm 1 mps 755 mmHg 55%
    18:00 +20°C° 0 mm 1 mps 755 mmHg 61%
    19:00 +19°C° 0 mm 2 mps 756 mmHg 64%
    20:00 +18°C° 0 mm 2 mps 756 mmHg 67%
    21:00 +18°C° 0 mm 2 mps 756 mmHg 70%
    22:00 +18°C° 0 mm 2 mps 756 mmHg 73%
    23:00 +18°C° 0 mm 2 mps 756 mmHg 76%

    Day after tomorrow, 29 March, Wednesday

    Time Temperature Precipitation Wind Pressure Humidity
    00:00 +17°C° 0 mm 2 mps 755 mmHg 79%
    01:00 +17°C° 0 mm 3 mps 755 mmHg 81%
    02:00 +17°C° 0 mm 3 mps 755 mmHg 83%
    03:00 +17°C° 0 mm 3 mps 755 mmHg 85%
    04:00 +17°C° 0 mm 3 mps 755 mmHg 84%
    05:00 +18°C° 0 mm 4 mps 755 mmHg 83%
    06:00 +18°C° 0 mm 4 mps 755 mmHg 82%
    07:00 +19°C° 0 mm 4 mps 755 mmHg 77%
    08:00 +20°C° 0 mm 5 mps 755 mmHg 72%
    09:00 +21°C° 0 mm 5 mps 755 mmHg 66%
    10:00 +21°C° 0.2 mm 5 mps 755 mmHg 67%
    11:00 +21°C° 0.2 mm 5 mps 755 mmHg 68%
    12:00 +21°C° 0.2 mm 6 mps 755 mmHg 69%
    13:00 +21°C° 0.4 mm 6 mps 755 mmHg 71%
    14:00 +20°C° 0.4 mm 6 mps 755 mmHg 73%
    15:00 +18°C° 0.4 mm 7 mps 755 mmHg 75%
    16:00 +17°C° 0.2 mm 6 mps 756 mmHg 73%
    17:00 +17°C° 0.2 mm 6 mps 757 mmHg 70%
    18:00 +16°C° 0.2 mm 5 mps 758 mmHg 67%
    19:00 +15°C° 0.1 mm 5 mps 758 mmHg 67%
    20:00 +15°C° 0.1 mm 5 mps 759 mmHg 68%
    21:00 +14°C° 0.1 mm 5 mps 760 mmHg 68%
    22:00 +14°C° 0 mm 5 mps 760 mmHg 67%
    23:00 +13°C° 0 mm 5 mps 760 mmHg 66%

    30 March, Thursday

    Time Temperature Precipitation Wind Pressure Humidity
    00:00 +13°C° 0 mm 4 mps 760 mmHg 65%
    01:00 +13°C° 0 mm 4 mps 761 mmHg 65%
    02:00 +13°C° 0 mm 4 mps 761 mmHg 64%
    03:00 +12°C° 0 mm 4 mps 761 mmHg 64%
    04:00 +12°C° 0 mm 4 mps 761 mmHg 64%
    05:00 +12°C° 0 mm 4 mps 762 mmHg 65%
    06:00 +12°C° 0 mm 4 mps 762 mmHg 65%
    07:00 +13°C° 0 mm 4 mps 763 mmHg 61%
    08:00 +15°C° 0 mm 5 mps 763 mmHg 57%
    09:00 +16°C° 0 mm 5 mps 764 mmHg 52%
    10:00 +16°C° 0 mm 5 mps 764 mmHg 50%
    11:00 +17°C° 0 mm 5 mps 764 mmHg 48%
    12:00 +17°C° 0 mm 5 mps 763 mmHg 46%
    13:00 +17°C° 0 mm 5 mps 763 mmHg 46%
    14:00 +17°C° 0 mm 5 mps 763 mmHg 46%
    15:00 +17°C° 0 mm 5 mps 763 mmHg 46%
    16:00 +17°C° 0 mm 4 mps 763 mmHg 50%
    17:00 +15°C° 0 mm 4 mps 763 mmHg 54%
    18:00 +14°C° 0 mm 4 mps 763 mmHg 59%
    19:00 +14°C° 0 mm 3 mps 764 mmHg 61%
    20:00 +13°C° 0 mm 3 mps 764 mmHg 64%
    21:00 +13°C° 0 mm 3 mps 765 mmHg 67%
    22:00 +12°C° 0 mm 3 mps 764 mmHg 69%
    23:00 +12°C° 0 mm 3 mps 764 mmHg 71%

    31 March, Friday

    Time Temperature Precipitation Wind Pressure Humidity
    00:00 +12°C° 0 mm 2 mps 764 mmHg 73%
    01:00 +12°C° 0 mm 2 mps 764 mmHg 75%
    02:00 +12°C° 0 mm 2 mps 764 mmHg 76%
    03:00 +12°C° 0 mm 2 mps 763 mmHg 78%
    04:00 +10°C° 0 mm 2 mps 764 mmHg 78%
    05:00 +10°C° 0 mm 2 mps 764 mmHg 79%
    06:00 +10°C° 0 mm 2 mps 764 mmHg 80%
    07:00 +13°C° 0 mm 1 mps 764 mmHg 70%
    08:00 +15°C° 0 mm 1 mps 765 mmHg 60%
    09:00 +18°C° 0 mm 1 mps 765 mmHg 50%
    10:00 +19°C° 0 mm 1 mps 764 mmHg 48%
    11:00 +19°C° 0 mm 1 mps 764 mmHg 46%
    12:00 +19°C° 0 mm 2 mps 763 mmHg 44%
    13:00 +19°C° 0 mm 2 mps 763 mmHg 45%
    14:00 +19°C° 0 mm 3 mps 763 mmHg 47%
    15:00 +19°C° 0 mm 4 mps 762 mmHg 48%
    16:00 +18°C° 0 mm 3 mps 763 mmHg 53%
    17:00 +17°C° 0 mm 3 mps 763 mmHg 58%
    18:00 +14°C° 0 mm 3 mps 763 mmHg 62%
    19:00 +14°C° 0 mm 3 mps 763 mmHg 65%
    20:00 +13°C° 0 mm 3 mps 764 mmHg 67%
    21:00 +13°C° 0 mm 3 mps 764 mmHg 70%
    22:00 +14°C° 0 mm 2 mps 764 mmHg 71%
    23:00 +13°C° 0 mm 2 mps 764 mmHg 73%

    1 April, Saturday

    Time Temperature Precipitation Wind Pressure Humidity
    00:00 +13°C° 0 mm 2 mps 764 mmHg 74%
    01:00 +13°C° 0 mm 2 mps 764 mmHg 76%
    02:00 +13°C° 0 mm 2 mps 764 mmHg 77%
    03:00 +13°C° 0 mm 2 mps 764 mmHg 79%
    04:00 +13°C° 0 mm 2 mps 764 mmHg 80%
    05:00 +13°C° 0 mm 2 mps 764 mmHg 82%
    06:00 +13°C° 0 mm 2 mps 765 mmHg 83%
    07:00 +15°C° 0 mm 2 mps 765 mmHg 76%
    08:00 +17°C° 0 mm 3 mps 765 mmHg 69%
    09:00 +19°C° 0 mm 3 mps 766 mmHg 62%
    10:00 +19°C° 0.2 mm 4 mps 765 mmHg 63%
    11:00 +19°C° 0.2 mm 5 mps 765 mmHg 65%
    12:00 +19°C° 0.2 mm 5 mps 765 mmHg 67%
    13:00 +19°C° 0 mm 5 mps 765 mmHg 64%
    14:00 +19°C° 0 mm 5 mps 765 mmHg 60%
    15:00 +19°C° 0 mm 5 mps 765 mmHg 57%
    16:00 +17°C° 0 mm 5 mps 765 mmHg 60%
    17:00 +16°C° 0 mm 5 mps 765 mmHg 63%
    18:00 +15°C° 0 mm 4 mps 766 mmHg 66%
    19:00 +14°C° 0 mm 4 mps 766 mmHg 68%
    20:00 +14°C° 0 mm 4 mps 767 mmHg 69%
    21:00 +13°C° 0 mm 4 mps 767 mmHg 70%
    22:00 +13°C° 0 mm 4 mps 767 mmHg 70%
    23:00 +13°C° 0 mm 4 mps 767 mmHg 69%
    Show more